TimeMST,TemperatureF,Dew PointF,Humidity,Sea Level PressureIn,VisibilityMPH,Wind Direction,Wind SpeedMPH,Gust SpeedMPH,PrecipitationIn,Events,Conditions,WindDirDegrees,DateUTC
12:15 AM,33.8,15.8,48,30.17,10.0,South,9.2,-,N/A,,Clear,190,2013-02-02 07:15:00
12:36 AM,33.8,17.6,52,30.17,10.0,Calm,Calm,-,N/A,,Clear,0,2013-02-02 07:36:00
12:55 AM,33.8,17.6,52,30.18,10.0,SE,6.9,-,N/A,,Clear,140,2013-02-02 07:55:00
1:15 AM,33.8,17.6,52,30.18,10.0,SSE,10.4,-,N/A,,Clear,150,2013-02-02 08:15:00
1:35 AM,33.8,17.6,52,30.19,10.0,South,5.8,-,N/A,,Clear,170,2013-02-02 08:35:00
1:56 AM,33.8,15.8,48,30.20,10.0,South,9.2,-,N/A,,Clear,170,2013-02-02 08:56:00
2:16 AM,33.8,14.0,44,30.20,10.0,Calm,Calm,-,N/A,,Clear,0,2013-02-02 09:16:00
2:36 AM,35.6,12.2,38,30.20,10.0,West,3.5,-,N/A,,Clear,270,2013-02-02 09:36:00
2:56 AM,32.0,14.0,48,30.21,10.0,North,5.8,-,N/A,,Clear,10,2013-02-02 09:56:00
3:16 AM,32.0,15.8,51,30.21,10.0,East,4.6,-,N/A,,Clear,90,2013-02-02 10:16:00
3:36 AM,32.0,14.0,48,30.22,10.0,East,3.5,-,N/A,,Clear,90,2013-02-02 10:36:00
3:56 AM,30.2,17.6,60,30.22,10.0,North,6.9,-,N/A,,Clear,350,2013-02-02 10:56:00
4:15 AM,32.0,17.6,55,30.22,10.0,NW,5.8,-,N/A,,Clear,310,2013-02-02 11:15:00
4:36 AM,28.4,17.6,64,30.21,10.0,West,6.9,-,N/A,,Clear,260,2013-02-02 11:36:00
5:47 AM,26.6,17.6,69,30.23,30.0,ESE,4.6,-,N/A,,Clear,110,2013-02-02 12:47:00
6:47 AM,24.8,17.6,74,30.23,80.0,West,3.5,-,N/A,,Clear,260,2013-02-02 13:47:00
7:45 AM,26.6,17.6,69,30.25,80.0,WSW,3.5,-,N/A,,Clear,240,2013-02-02 14:45:00
8:45 AM,32.0,19.4,60,30.25,80.0,Variable,3.5,-,N/A,,Clear,0,2013-02-02 15:45:00
9:47 AM,39.2,15.8,39,30.24,50.0,Variable,3.5,-,N/A,,Clear,0,2013-02-02 16:47:00
10:47 AM,48.2,6.8,19,30.24,80.0,South,3.5,-,N/A,,Partly Cloudy,190,2013-02-02 17:47:00
11:48 AM,53.6,-0.4,11,30.22,70.0,NW,5.8,-,N/A,,Partly Cloudy,320,2013-02-02 18:48:00
12:48 PM,55.4,-4.0,9,30.20,70.0,WSW,5.8,-,N/A,,Partly Cloudy,250,2013-02-02 19:48:00
1:14 PM,57.2,-2.2,9,30.20,70.0,WNW,16.1,-,N/A,,Partly Cloudy,290,2013-02-02 20:14:00
1:47 PM,57.2,-2.2,9,30.20,70.0,WNW,18.4,24.2,N/A,,Scattered Clouds,300,2013-02-02 20:47:00
2:50 PM,57.2,-2.2,9,30.20,70.0,WNW,16.1,-,N/A,,Scattered Clouds,290,2013-02-02 21:50:00
3:50 PM,55.4,-0.4,10,30.22,70.0,West,15.0,-,N/A,,Scattered Clouds,260,2013-02-02 22:50:00
4:47 PM,50.0,10.4,20,30.23,50.0,East,11.5,-,N/A,,Scattered Clouds,80,2013-02-02 23:47:00
5:47 PM,44.6,15.8,31,30.26,30.0,SE,4.6,-,N/A,,Scattered Clouds,130,2013-02-03 00:47:00
6:46 PM,42.8,10.4,27,30.29,25.0,Variable,4.6,-,N/A,,Partly Cloudy,0,2013-02-03 01:46:00
7:50 PM,41.0,10.4,29,30.31,20.0,SE,8.1,-,N/A,,Partly Cloudy,130,2013-02-03 02:50:00
8:45 PM,39.2,10.4,31,30.30,20.0,SSE,5.8,-,N/A,,Partly Cloudy,150,2013-02-03 03:45:00
9:48 PM,35.6,12.2,38,30.28,30.0,SW,5.8,-,N/A,,Partly Cloudy,220,2013-02-03 04:48:00
10:16 PM,35.6,14.0,41,30.27,10.0,SW,4.6,-,N/A,,Clear,220,2013-02-03 05:16:00
10:36 PM,35.6,14.0,41,30.26,10.0,SW,4.6,-,N/A,,Clear,220,2013-02-03 05:36:00
10:56 PM,35.6,12.2,38,30.26,10.0,SSW,3.5,-,N/A,,Clear,210,2013-02-03 05:56:00
11:16 PM,33.8,17.6,52,30.25,10.0,South,3.5,-,N/A,,Clear,170,2013-02-03 06:16:00
11:36 PM,33.8,17.6,52,30.25,10.0,South,4.6,-,N/A,,Clear,180,2013-02-03 06:36:00
11:56 PM,33.8,17.6,52,30.24,10.0,SSW,4.6,-,N/A,,Clear,200,2013-02-03 06:56:00